{"data":{"norad_id":49200,"intl_designator":"2021-083Q","name":"ONEWEB-0334","alt_names":[],"object_type":"PAYLOAD","status":"ACTIVE","operator":null,"country":"UK","launch_date":"2021-09-14","launch_site_code":"TYMSC","launch_vehicle":null,"mission":null,"orbit_class":"UNKNOWN","rcs_meters":null,"size_class":null,"mass_kg":null,"dimensions":null,"purposes":["comms"],"wikipedia_slug":null,"has_3d_model":false,"image_url":null,"decayed_at":null,"tle_current":{"epoch":"2026-09-20T05:08:44.674944Z","epoch_age_seconds":46677,"freshness":"FRESH","line1":"1 49200U 21083Q   26263.21440596  .00004974  00000+0  12208-1 0  9996","line2":"2 49200  87.9266 255.4898 0002093  76.9680 283.1687 13.20696331249336","mean_motion":13.20696331,"eccentricity":0.0002093,"inclination_deg":87.9266,"raan_deg":255.4898,"arg_perigee_deg":76.968,"mean_anomaly_deg":283.1687,"bstar":0.012208,"rev_number":24933,"period_min":109.0333914163,"perigee_km":1180.4790688362,"apogee_km":1183.6437678942,"semimajor_km":7560.1984183652,"source":"CELESTRAK","updated_at":"2026-09-20T09:00:44.663281Z"}}}